Station Historical Data
Daily Summary for April 18, 2011 Units:  English    Metric   Both
« Previous Day
Next Day »
Daily Weekly Monthly Yearly Custom
  High: Low: Average:
Temperature: 72.2 °F 51.0 °F 58.1 °F
Dew Point: 59.8 °F 41.5 °F 46.6 °F
Humidity: 76% 51% 66%
Wind Speed: 13.0mph 1.0mph 5.1mph
Wind Gust: 19.0mph - -
Wind- - SSE
Pressure: 29.97 in 29.92 in -
Precipitation: 0.00 in    
Historical Graphs
 
 
Tabular Data for April 18, 2011
Time Temperature Dew Point Pressure Wind Wind Speed Wind Gust Humidity Rainfall Rate (Hourly) Conditions
00:00 57.5 °F 41.5 °F 29.94 in SE 4.0 mph 5.0 mph 55% 0.00 in
00:01 57.6 °F 41.6 °F 29.94 in SE 4.0 mph 5.0 mph 55% 0.00 in
00:06 57.8 °F 41.8 °F 29.94 in SE 5.0 mph 7.0 mph 55% 0.00 in
00:11 58.1 °F 41.6 °F 29.93 in SE 6.0 mph 8.0 mph 54% 0.00 in
00:16 58.2 °F 41.7 °F 29.93 in SSE 5.0 mph 7.0 mph 54% 0.00 in
00:21 57.5 °F 41.9 °F 29.93 in SE 4.0 mph 5.0 mph 56% 0.00 in
00:26 56.8 °F 41.8 °F 29.93 in SSE 4.0 mph 6.0 mph 57% 0.00 in
00:30 56.4 °F 42.3 °F 29.93 in SE 4.0 mph 5.0 mph 59% 0.00 in
00:32 56.3 °F 41.7 °F 29.93 in SE 4.0 mph 6.0 mph 58% 0.00 in
00:37 56.2 °F 42.1 °F 29.94 in SSW 3.0 mph 5.0 mph 59% 0.00 in
00:43 56.6 °F 42.0 °F 29.94 in SSE 4.0 mph 4.0 mph 58% 0.00 in
00:49 57.0 °F 41.9 °F 29.95 in South 2.0 mph 6.0 mph 57% 0.00 in
00:54 57.1 °F 42.0 °F 29.95 in South 3.0 mph 5.0 mph 57% 0.00 in
00:58 56.9 °F 41.8 °F 29.95 in South 2.0 mph 4.0 mph 57% 0.00 in
00:59 56.8 °F 42.2 °F 29.94 in SSW 3.0 mph 4.0 mph 58% 0.00 in
01:03 56.3 °F 42.6 °F 29.94 in SSE 5.0 mph 5.0 mph 60% 0.00 in
01:08 55.7 °F 42.9 °F 29.94 in SSE 4.0 mph 5.0 mph 62% 0.00 in
01:13 55.5 °F 42.7 °F 29.93 in South 3.0 mph 7.0 mph 62% 0.00 in
01:18 55.7 °F 42.9 °F 29.93 in South 5.0 mph 7.0 mph 62% 0.00 in
01:23 56.1 °F 42.8 °F 29.93 in SSE 3.0 mph 7.0 mph 61% 0.00 in
01:28 56.3 °F 43.0 °F 29.93 in SE 5.0 mph 6.0 mph 61% 0.00 in
01:29 56.3 °F 43.0 °F 29.93 in SSE 6.0 mph 6.0 mph 61% 0.00 in
01:33 56.3 °F 43.0 °F 29.94 in SSW 4.0 mph 9.0 mph 61% 0.00 in
01:34 56.3 °F 43.0 °F 29.94 in SW 4.0 mph 9.0 mph 61% 0.00 in
01:38 56.5 °F 43.2 °F 29.94 in SSE 5.0 mph 6.0 mph 61% 0.00 in
01:43 56.7 °F 43.0 °F 29.93 in SSE 6.0 mph 8.0 mph 60% 0.00 in
01:48 56.8 °F 43.5 °F 29.93 in SE 2.0 mph 7.0 mph 61% 0.00 in
01:53 56.6 °F 43.3 °F 29.94 in South 6.0 mph 6.0 mph 61% 0.00 in
01:54 56.6 °F 43.3 °F 29.94 in South 2.0 mph 6.0 mph 61% 0.00 in
01:59 56.5 °F 43.2 °F 29.94 in SSW 2.0 mph 4.0 mph 61% 0.00 in
02:04 56.2 °F 43.4 °F 29.94 in South 3.0 mph 3.0 mph 62% 0.00 in
02:09 55.9 °F 43.1 °F 29.95 in South 4.0 mph 4.0 mph 62% 0.00 in
02:14 55.8 °F 43.0 °F 29.95 in SE 4.0 mph 4.0 mph 62% 0.00 in
02:19 55.5 °F 43.1 °F 29.95 in SW 2.0 mph 5.0 mph 63% 0.00 in
02:24 55.1 °F 43.2 °F 29.95 in South 3.0 mph 4.0 mph 64% 0.00 in
02:29 55.2 °F 43.2 °F 29.95 in South 5.0 mph 5.0 mph 64% 0.00 in
02:31 55.4 °F 43.4 °F 29.95 in South 4.0 mph 5.0 mph 64% 0.00 in
02:35 55.3 °F 43.3 °F 29.95 in South 3.0 mph 5.0 mph 64% 0.00 in
02:37 55.1 °F 43.2 °F 29.95 in SSE 3.0 mph 4.0 mph 64% 0.00 in
02:42 54.6 °F 43.1 °F 29.95 in South 3.0 mph 4.0 mph 65% 0.00 in
02:47 54.4 °F 43.3 °F 29.95 in South 1.0 mph 3.0 mph 66% 0.00 in
02:52 54.3 °F 43.2 °F 29.95 in South 2.0 mph 4.0 mph 66% 0.00 in
02:53 54.2 °F 43.1 °F 29.95 in SSE 1.0 mph 4.0 mph 66% 0.00 in
02:58 54.2 °F 43.1 °F 29.95 in SSE 2.0 mph 3.0 mph 66% 0.00 in
02:59 54.2 °F 43.1 °F 29.95 in South 1.0 mph 3.0 mph 66% 0.00 in
03:04 54.1 °F 43.0 °F 29.95 in South 2.0 mph 3.0 mph 66% 0.00 in
03:09 53.9 °F 43.2 °F 29.95 in SE 3.0 mph 4.0 mph 67% 0.00 in
03:14 53.4 °F 43.1 °F 29.95 in SSE 4.0 mph 4.0 mph 68% 0.00 in
03:19 53.0 °F 43.1 °F 29.94 in SSE 4.0 mph 4.0 mph 69% 0.00 in
03:20 52.9 °F 43.0 °F 29.94 in SE 3.0 mph 4.0 mph 69% 0.00 in
03:24 52.8 °F 43.3 °F 29.94 in SSE 2.0 mph 4.0 mph 70% 0.00 in
03:29 52.8 °F 43.3 °F 29.94 in SE 4.0 mph 6.0 mph 70% 0.00 in
03:30 52.9 °F 43.4 °F 29.94 in SSE 5.0 mph 6.0 mph 70% 0.00 in
03:34 53.3 °F 43.4 °F 29.94 in SSE 3.0 mph 6.0 mph 69% 0.00 in
03:39 53.4 °F 43.5 °F 29.93 in South 4.0 mph 5.0 mph 69% 0.00 in
03:44 53.2 °F 43.3 °F 29.93 in SSE 6.0 mph 6.0 mph 69% 0.00 in
03:49 53.2 °F 43.3 °F 29.93 in SSE 5.0 mph 6.0 mph 69% 0.00 in
03:54 53.1 °F 43.2 °F 29.92 in SE 4.0 mph 5.0 mph 69% 0.00 in
03:55 53.0 °F 43.1 °F 29.92 in SE 6.0 mph 6.0 mph 69% 0.00 in
03:58 52.9 °F 43.4 °F 29.93 in SSE 5.0 mph 6.0 mph 70% 0.00 in
03:59 52.9 °F 43.4 °F 29.93 in SSE 4.0 mph 6.0 mph 70% 0.00 in
04:04 52.9 °F 43.4 °F 29.93 in SSE 4.0 mph 5.0 mph 70% 0.00 in
04:09 52.8 °F 43.3 °F 29.92 in SSE 3.0 mph 6.0 mph 70% 0.00 in
04:14 52.8 °F 43.3 °F 29.92 in SE 3.0 mph 5.0 mph 70% 0.00 in
04:19 52.8 °F 43.3 °F 29.92 in SE 3.0 mph 4.0 mph 70% 0.00 in
04:24 52.6 °F 43.5 °F 29.92 in SE 3.0 mph 5.0 mph 71% 0.00 in
04:25 52.6 °F 43.5 °F 29.92 in SSE 3.0 mph 5.0 mph 71% 0.00 in
04:29 52.4 °F 43.3 °F 29.92 in SE 3.0 mph 5.0 mph 71% 0.00 in
04:30 52.4 °F 43.3 °F 29.92 in SE 3.0 mph 5.0 mph 71% 0.00 in
04:31 52.4 °F 43.3 °F 29.92 in SE 4.0 mph 5.0 mph 71% 0.00 in
04:35 52.4 °F 43.3 °F 29.92 in SE 3.0 mph 4.0 mph 71% 0.00 in
04:41 52.4 °F 43.7 °F 29.92 in SSE 3.0 mph 4.0 mph 72% 0.00 in
04:46 52.3 °F 43.2 °F 29.92 in SSE 4.0 mph 4.0 mph 71% 0.00 in
04:51 52.0 °F 43.3 °F 29.92 in SSE 4.0 mph 4.0 mph 72% 0.00 in
04:52 52.0 °F 43.3 °F 29.92 in SSE 3.0 mph 4.0 mph 72% 0.00 in
04:56 51.9 °F 43.2 °F 29.93 in SE 3.0 mph 5.0 mph 72% 0.00 in
04:57 51.9 °F 43.2 °F 29.93 in SE 3.0 mph 5.0 mph 72% 0.00 in
05:01 51.7 °F 43.3 °F 29.93 in SE 4.0 mph 4.0 mph 73% 0.00 in
05:02 51.7 °F 43.3 °F 29.93 in SSE 5.0 mph 6.0 mph 73% 0.00 in
05:07 51.9 °F 43.5 °F 29.93 in SE 4.0 mph 4.0 mph 73% 0.00 in
05:12 52.3 °F 43.9 °F 29.93 in SSE 2.0 mph 5.0 mph 73% 0.00 in
05:13 52.3 °F 43.9 °F 29.93 in SSE 2.0 mph 5.0 mph 73% 0.00 in
05:17 52.4 °F 43.7 °F 29.93 in SSE 3.0 mph 7.0 mph 72% 0.00 in
05:23 52.5 °F 43.8 °F 29.93 in SSE 4.0 mph 5.0 mph 72% 0.00 in
05:28 52.5 °F 44.1 °F 29.93 in SSE 7.0 mph 7.0 mph 73% 0.00 in
05:33 52.6 °F 43.8 °F 29.93 in SSE 4.0 mph 7.0 mph 72% 0.00 in
05:34 52.6 °F 43.8 °F 29.93 in SE 5.0 mph 7.0 mph 72% 0.00 in
05:36 52.6 °F 44.2 °F 29.94 in SSE 5.0 mph 6.0 mph 73% 0.00 in
05:38 52.6 °F 43.8 °F 29.93 in SSE 6.0 mph 7.0 mph 72% 0.00 in
05:43 52.8 °F 44.0 °F 29.93 in SE 5.0 mph 7.0 mph 72% 0.00 in
05:48 52.6 °F 43.8 °F 29.94 in SE 6.0 mph 6.0 mph 72% 0.00 in
05:53 52.5 °F 43.8 °F 29.94 in SE 5.0 mph 5.0 mph 72% 0.00 in
05:54 52.5 °F 43.4 °F 29.94 in SSE 5.0 mph 6.0 mph 71% 0.00 in
05:56 52.6 °F 43.8 °F 29.94 in SSE 4.0 mph 6.0 mph 72% 0.00 in
05:58 52.6 °F 43.8 °F 29.94 in SE 4.0 mph 4.0 mph 72% 0.00 in
06:03 52.5 °F 43.8 °F 29.93 in SE 5.0 mph 5.0 mph 72% 0.00 in
06:08 52.8 °F 43.7 °F 29.94 in SSE 4.0 mph 6.0 mph 71% 0.00 in
06:13 52.7 °F 43.9 °F 29.94 in SE 3.0 mph 6.0 mph 72% 0.00 in
06:18 52.5 °F 43.8 °F 29.94 in SSE 4.0 mph 5.0 mph 72% 0.00 in
06:23 52.3 °F 43.5 °F 29.94 in SSE 2.0 mph 5.0 mph 72% 0.00 in
06:24 52.3 °F 43.5 °F 29.94 in SSE 2.0 mph 5.0 mph 72% 0.00 in
06:29 52.1 °F 43.7 °F 29.94 in SE 2.0 mph 4.0 mph 73% 0.00 in
06:34 52.0 °F 43.6 °F 29.94 in SE 3.0 mph 3.0 mph 73% 0.00 in
06:36 52.0 °F 43.6 °F 29.94 in SE 2.0 mph 3.0 mph 73% 0.00 in
06:41 52.0 °F 44.0 °F 29.94 in SE 3.0 mph 4.0 mph 74% 0.00 in
06:46 51.9 °F 43.9 °F 29.94 in SE 3.0 mph 6.0 mph 74% 0.00 in
06:51 52.0 °F 44.0 °F 29.94 in SE 4.0 mph 5.0 mph 74% 0.00 in
06:52 52.0 °F 44.0 °F 29.94 in SE 4.0 mph 5.0 mph 74% 0.00 in
06:57 52.1 °F 44.1 °F 29.94 in SSE 5.0 mph 6.0 mph 74% 0.00 in
06:59 52.1 °F 44.1 °F 29.94 in SE 4.0 mph 6.0 mph 74% 0.00 in
07:04 52.2 °F 44.2 °F 29.94 in SE 3.0 mph 8.0 mph 74% 0.00 in
07:09 51.8 °F 43.8 °F 29.94 in SSE 4.0 mph 6.0 mph 74% 0.00 in
07:14 51.3 °F 43.7 °F 29.94 in SE 3.0 mph 4.0 mph 75% 0.00 in
07:19 51.0 °F 43.7 °F 29.94 in SSE 4.0 mph 5.0 mph 76% 0.00 in
07:24 51.2 °F 43.9 °F 29.94 in SE 5.0 mph 6.0 mph 76% 0.00 in
07:29 51.7 °F 44.0 °F 29.94 in SSE 5.0 mph 8.0 mph 75% 0.00 in
07:33 52.0 °F 44.3 °F 29.94 in SE 6.0 mph 10.0 mph 75% 0.00 in
07:34 52.0 °F 44.3 °F 29.94 in SSE 7.0 mph 10.0 mph 75% 0.00 in
07:35 52.0 °F 44.0 °F 29.94 in SSE 7.0 mph 10.0 mph 74% 0.00 in
07:36 52.0 °F 44.0 °F 29.94 in SSE 5.0 mph 9.0 mph 74% 0.00 in
07:38 52.0 °F 44.0 °F 29.94 in SE 4.0 mph 8.0 mph 74% 0.00 in
07:40 52.1 °F 44.1 °F 29.94 in SSE 8.0 mph 8.0 mph 74% 0.00 in
07:45 52.0 °F 44.0 °F 29.94 in SE 3.0 mph 6.0 mph 74% 0.00 in
07:50 51.8 °F 44.1 °F 29.94 in SE 3.0 mph 5.0 mph 75% 0.00 in
07:56 52.0 °F 44.3 °F 29.94 in SSE 5.0 mph 5.0 mph 75% 0.00 in
07:59 52.3 °F 44.6 °F 29.94 in SSE 3.0 mph 5.0 mph 75% 0.00 in
08:04 52.7 °F 45.0 °F 29.95 in SSE 3.0 mph 5.0 mph 75% 0.00 in
08:09 53.0 °F 45.0 °F 29.95 in SE 4.0 mph 5.0 mph 74% 0.00 in
08:14 53.2 °F 45.1 °F 29.95 in SSE 5.0 mph 5.0 mph 74% 0.00 in
08:19 53.4 °F 45.3 °F 29.95 in SE 7.0 mph 8.0 mph 74% 0.00 in
08:24 53.6 °F 45.2 °F 29.95 in SSE 7.0 mph 7.0 mph 73% 0.00 in
08:25 53.7 °F 45.3 °F 29.95 in SSE 5.0 mph 7.0 mph 73% 0.00 in
08:29 54.1 °F 45.7 °F 29.95 in SSE 6.0 mph 7.0 mph 73% 0.00 in
08:30 54.1 °F 45.7 °F 29.95 in ESE 5.0 mph 7.0 mph 73% 0.00 in
08:33 54.3 °F 45.5 °F 29.95 in SSE 4.0 mph 9.0 mph 72% 0.00 in
08:35 54.4 °F 45.9 °F 29.95 in SSE 7.0 mph 9.0 mph 73% 0.00 in
08:38 54.6 °F 46.1 °F 29.95 in SSE 4.0 mph 8.0 mph 73% 0.00 in
08:39 54.6 °F 45.8 °F 29.95 in SSE 4.0 mph 8.0 mph 72% 0.00 in
08:44 54.9 °F 46.8 °F 29.95 in SSE 4.0 mph 7.0 mph 74% 0.00 in
08:49 55.6 °F 46.4 °F 29.95 in SSE 8.0 mph 9.0 mph 71% 0.00 in
08:54 55.9 °F 46.7 °F 29.95 in SE 8.0 mph 9.0 mph 71% 0.00 in
08:59 56.4 °F 47.1 °F 29.95 in SE 6.0 mph 9.0 mph 71% 0.00 in
09:04 56.7 °F 47.4 °F 29.95 in SSE 7.0 mph 9.0 mph 71% 0.00 in
09:09 56.7 °F 47.0 °F 29.95 in SSE 4.0 mph 9.0 mph 70% 0.00 in
09:14 56.7 °F 47.0 °F 29.96 in SSE 6.0 mph 8.0 mph 70% 0.00 in
09:15 56.7 °F 47.0 °F 29.96 in SSE 4.0 mph 7.0 mph 70% 0.00 in
09:19 56.8 °F 47.1 °F 29.96 in SSE 5.0 mph 8.0 mph 70% 0.00 in
09:24 56.8 °F 47.1 °F 29.96 in SSE 5.0 mph 8.0 mph 70% 0.00 in
09:25 56.9 °F 47.6 °F 29.96 in SE 6.0 mph 8.0 mph 71% 0.00 in
09:29 57.0 °F 47.3 °F 29.96 in SSE 7.0 mph 8.0 mph 70% 0.00 in
09:30 57.1 °F 47.4 °F 29.96 in SSE 7.0 mph 8.0 mph 70% 0.00 in
09:31 57.1 °F 47.4 °F 29.96 in SE 7.0 mph 9.0 mph 70% 0.00 in
09:32 57.2 °F 47.5 °F 29.96 in SSE 10.0 mph 10.0 mph 70% 0.00 in
09:37 57.4 °F 47.7 °F 29.96 in SSE 8.0 mph 8.0 mph 70% 0.00 in
09:38 57.5 °F 47.8 °F 29.95 in SSE 9.0 mph 9.0 mph 70% 0.00 in
09:43 57.8 °F 48.1 °F 29.96 in SSE 3.0 mph 7.0 mph 70% 0.00 in
09:48 58.1 °F 48.0 °F 29.96 in SE 5.0 mph 8.0 mph 69% 0.00 in
09:49 58.1 °F 48.0 °F 29.96 in SSE 4.0 mph 8.0 mph 69% 0.00 in
09:54 58.4 °F 47.9 °F 29.96 in SSE 9.0 mph 9.0 mph 68% 0.00 in
09:59 58.6 °F 47.7 °F 29.96 in SSE 7.0 mph 11.0 mph 67% 0.00 in
10:04 58.9 °F 48.0 °F 29.96 in SSW 5.0 mph 8.0 mph 67% 0.00 in
10:09 59.2 °F 48.7 °F 29.97 in WSW 5.0 mph 9.0 mph 68% 0.00 in
10:14 59.6 °F 47.4 °F 29.97 in South 6.0 mph 8.0 mph 64% 0.00 in
10:19 59.9 °F 47.7 °F 29.97 in SSE 7.0 mph 8.0 mph 64% 0.00 in
10:24 60.3 °F 47.2 °F 29.97 in South 7.0 mph 10.0 mph 62% 0.00 in
10:29 60.6 °F 45.3 °F 29.97 in SW 8.0 mph 14.0 mph 57% 0.00 in
10:30 60.6 °F 45.8 °F 29.97 in South 7.0 mph 14.0 mph 58% 0.00 in
10:31 60.7 °F 45.8 °F 29.97 in SE 6.0 mph 14.0 mph 58% 0.00 in
10:35 60.7 °F 45.8 °F 29.97 in SSE 5.0 mph 11.0 mph 58% 0.00 in
10:37 60.7 °F 45.4 °F 29.97 in SW 7.0 mph 10.0 mph 57% 0.00 in
10:42 60.8 °F 45.0 °F 29.97 in SSE 9.0 mph 9.0 mph 56% 0.00 in
10:47 60.9 °F 45.1 °F 29.97 in SSE 7.0 mph 11.0 mph 56% 0.00 in
10:52 60.9 °F 45.1 °F 29.97 in SSE 5.0 mph 10.0 mph 56% 0.00 in
10:53 61.0 °F 45.7 °F 29.97 in SE 9.0 mph 10.0 mph 57% 0.00 in
10:57 61.3 °F 46.4 °F 29.97 in South 3.0 mph 9.0 mph 58% 0.00 in
10:58 61.4 °F 46.5 °F 29.97 in SE 4.0 mph 9.0 mph 58% 0.00 in
10:59 61.6 °F 46.7 °F 29.97 in South 5.0 mph 9.0 mph 58% 0.00 in
11:03 62.2 °F 45.8 °F 29.97 in South 6.0 mph 11.0 mph 55% 0.00 in
11:08 63.0 °F 45.1 °F 29.96 in SSE 5.0 mph 8.0 mph 52% 0.00 in
11:13 63.4 °F 46.5 °F 29.96 in SW 6.0 mph 10.0 mph 54% 0.00 in
11:18 63.8 °F 45.9 °F 29.96 in South 7.0 mph 17.0 mph 52% 0.00 in
11:23 64.3 °F 46.3 °F 29.96 in SSW 9.0 mph 14.0 mph 52% 0.00 in
11:28 64.9 °F 47.9 °F 29.96 in SW 8.0 mph 11.0 mph 54% 0.00 in
11:33 65.3 °F 47.2 °F 29.96 in SSE 7.0 mph 13.0 mph 52% 0.00 in
11:34 65.4 °F 47.3 °F 29.96 in South 6.0 mph 13.0 mph 52% 0.00 in
11:36 65.5 °F 47.9 °F 29.96 in South 9.0 mph 11.0 mph 53% 0.00 in
11:41 65.7 °F 47.6 °F 29.96 in South 11.0 mph 14.0 mph 52% 0.00 in
11:46 66.1 °F 48.0 °F 29.96 in SSW 9.0 mph 9.0 mph 52% 0.00 in
11:51 66.9 °F 49.2 °F 29.96 in South 8.0 mph 10.0 mph 53% 0.00 in
11:52 66.9 °F 48.2 °F 29.96 in South 4.0 mph 10.0 mph 51% 0.00 in
11:57 67.5 °F 50.3 °F 29.96 in West 6.0 mph 10.0 mph 54% 0.00 in
11:58 67.6 °F 51.8 °F 29.96 in SE 7.0 mph 10.0 mph 57% 0.00 in
12:03 67.5 °F 51.8 °F 29.96 in South 6.0 mph 10.0 mph 57% 0.00 in
12:08 66.9 °F 50.7 °F 29.96 in SW 11.0 mph 13.0 mph 56% 0.00 in
12:09 66.9 °F 50.7 °F 29.96 in SW 7.0 mph 13.0 mph 56% 0.00 in
12:14 66.9 °F 51.2 °F 29.96 in SW 7.0 mph 12.0 mph 57% 0.00 in
12:19 67.2 °F 52.4 °F 29.96 in SW 7.0 mph 12.0 mph 59% 0.00 in
12:24 67.3 °F 52.5 °F 29.96 in South 5.0 mph 10.0 mph 59% 0.00 in
12:25 67.5 °F 53.6 °F 29.96 in SSW 7.0 mph 10.0 mph 61% 0.00 in
12:29 67.9 °F 53.5 °F 29.96 in South 3.0 mph 10.0 mph 60% 0.00 in
12:30 67.9 °F 54.0 °F 29.96 in SW 9.0 mph 10.0 mph 61% 0.00 in
12:35 68.4 °F 54.4 °F 29.95 in SSW 9.0 mph 13.0 mph 61% 0.00 in
12:36 68.5 °F 54.5 °F 29.95 in SSW 10.0 mph 11.0 mph 61% 0.00 in
12:41 68.8 °F 55.7 °F 29.95 in SSW 9.0 mph 18.0 mph 63% 0.00 in
12:46 68.5 °F 55.4 °F 29.95 in SW 4.0 mph 14.0 mph 63% 0.00 in
12:51 68.7 °F 56.0 °F 29.95 in South 13.0 mph 13.0 mph 64% 0.00 in
12:52 68.7 °F 55.2 °F 29.95 in SSW 10.0 mph 19.0 mph 62% 0.00 in
12:53 68.7 °F 56.0 °F 29.94 in SW 9.0 mph 19.0 mph 64% 0.00 in
12:57 68.7 °F 56.0 °F 29.95 in SSW 11.0 mph 14.0 mph 64% 0.00 in
13:02 69.1 °F 56.0 °F 29.95 in SSW 9.0 mph 12.0 mph 63% 0.00 in
13:07 69.5 °F 56.4 °F 29.95 in SSE 8.0 mph 11.0 mph 63% 0.00 in
13:12 69.8 °F 57.5 °F 29.94 in WSW 7.0 mph 9.0 mph 65% 0.00 in
13:18 70.5 °F 57.8 °F 29.94 in South 10.0 mph 13.0 mph 64% 0.00 in
13:23 70.4 °F 57.7 °F 29.94 in SSW 4.0 mph 11.0 mph 64% 0.00 in
13:28 70.8 °F 56.7 °F 29.94 in SSW 7.0 mph 13.0 mph 61% 0.00 in
13:29 70.8 °F 56.7 °F 29.94 in ESE 7.0 mph 12.0 mph 61% 0.00 in
13:31 70.9 °F 57.2 °F 29.94 in SE 8.0 mph 11.0 mph 62% 0.00 in
13:33 71.0 °F 57.3 °F 29.94 in SSE 5.0 mph 10.0 mph 62% 0.00 in
13:34 71.0 °F 58.2 °F 29.94 in SE 6.0 mph 10.0 mph 64% 0.00 in
13:37 71.4 °F 59.0 °F 29.93 in SE 13.0 mph 13.0 mph 65% 0.00 in
13:42 71.4 °F 58.2 °F 29.93 in SW 4.0 mph 12.0 mph 63% 0.00 in
13:47 71.6 °F 57.9 °F 29.93 in SW 7.0 mph 12.0 mph 62% 0.00 in
13:52 71.9 °F 58.6 °F 29.92 in SSE 5.0 mph 11.0 mph 63% 0.00 in
13:53 72.1 °F 59.7 °F 29.93 in SW 5.0 mph 11.0 mph 65% 0.00 in
13:54 72.2 °F 59.8 °F 29.93 in SW 5.0 mph 11.0 mph 65% 0.00 in
13:59 72.0 °F 59.2 °F 29.92 in SW 6.0 mph 10.0 mph 64% 0.00 in
14:05 71.7 °F 59.3 °F 29.92 in SSW 7.0 mph 10.0 mph 65% 0.00 in
14:09 71.4 °F 59.5 °F 29.92 in South 3.0 mph 11.0 mph 66% 0.00 in
14:10 71.5 °F 59.6 °F 29.92 in SSW 3.0 mph 11.0 mph 66% 0.00 in
14:14 71.2 °F 59.3 °F 29.92 in South 5.0 mph 8.0 mph 66% 0.00 in
14:15 71.1 °F 59.2 °F 29.92 in SW 5.0 mph 8.0 mph 66% 0.00 in
14:19 70.8 °F 59.7 °F 29.92 in SW 4.0 mph 11.0 mph 68% 0.00 in
Compliments of Weather Underground